www.pogodaiklimat.ru

Погода и климат >> Архив погоды >> Россия >> Калининградская область >> Балтийск


ПОГОДА в Балтийске

  • Прогноз погоды в Балтийске
  • Монитор погоды в Балтийске

АРХИВ ПОГОДЫ в Балтийске

Время (UTC), дата Ветер
(напр.,м/с)
 
Видим.   Явления Облачность Т
(С)
Тd
(С)
f
(%)
Тe
(С)
Тes
(С)
Комфортность P
(гПа)
Po
(гПа)
Тmin
(С)
Tmax
(С)
R
(мм)
R24
(мм)
S
(см)
21 9.06 В 3-5
{7}
20 км 10/0
[Cs]
+18.8 +8.9 53 +20 +20 1024.7 1024.2
00 10.06 В 2-5
{6}
20 км 10/0
[Ac As]
+18.0 +10.3 61 +19 +19 1024.3 1023.8
03 10.06 ЮВ 1-3
{5}
20 км 9/0
[Ac As]
+18.3 +10.7 61 +20 +20 1023.5 1023.0 +17.5
06 10.06 ЮВ 2-5
{5}
20 км 9/0
[Ac As]
+19.8 +11.8 60 +22 +24 комфорт 1023.0 1022.5 +17.5
09 10.06 В 2-5
{6}
20 км 9/3 600 м
[Cu Sc Ac As]
+22.6 +12.6 53 +25 +29 комфорт 1021.6 1021.1
12 10.06 В 3-8
{8}
20 км 9/3 600 м
[Cu Sc Ac As]
+24.6 +11.1 43 +26 +29 жарко 1019.5 1019.0
15 10.06 В 4-7
{9}
20 км 6/1 600 м
[Sc Ci fib]
+25.5 +12.7 45 +27 +31 жарко 1017.3 1016.8
18 10.06 В 3-6
{9}
20 км 8/8 300 м
[Cb cap]
+24.3 +14.3 54 +27 +27 жарко 1015.6 1015.1 +25.8
21 10.06 В 4-7
{7}
20 км 8/8 600 м
[Cb cap]
+22.7 +14.5 60 +26 +26 жарко 1015.2 1014.6
00 11.06 СВ 3-5
{9}
4000 м гроза, ливневой дождь 8/8 300 м
[Cu Sc]
+18.1 +17.5 96 +18 +18 1016.1 1015.6
03 11.06 В 3-6
{8}
20 км слаб. ливневой дождь, в посл. час гроза 6/6 600 м
[]
+19.0 +15.5 80 +21 +21 комфорт 1015.1 1014.6 +17.4
06 11.06 В 3-6
{8}
20 км {гроза, ливн. осадки} 10/10 600 м
[Cu Sc]
+22.2 +17.3 74 +27 +27 душно 1013.8 1013.3 +17.4 7
09 11.06 ЮВ 4-7
{7}
20 км 9/0
[Ci fib]
+25.3 +18.1 64 +30 +38 душно 1013.3 1012.8
12 11.06 ЮВ 3-4
{8}
20 км 8/0
[Ci fib]
+28.5 +17.8 52 +33 +43 очень
душно
1013.6 1013.1
15 11.06 ЮВ 1-2
{3}
20 км 1/1 600 м
[Cu Sc]
+30.4 +16.6 43 +34 +41 очень
душно
1012.9 1012.4
18 11.06 В 1-2
{3}
20 км 3/3 600 м
[Cu Sc]
+26.4 +18.9 63 +31 +32 душно 1012.7 1012.2 +32.2
21 11.06 В 2-2
{4}
20 км ясно +25.1 +18.5 67 +30 +30 душно 1013.2 1012.7
00 12.06 ЮВ 1-2
{4}
20 км ясно +23.0 +18.2 74 +29 +29 очень
душно
1013.3 1012.8
03 12.06 ЮВ 1-3
{4}
20 км 3/3 600 м
[Sc]
+22.8 +18.2 75 +28 +28 душно 1013.1 1012.6 +22.1
06 12.06 В 2-4
{5}
20 км ясно +25.7 +18.4 64 +30 +36 душно 1012.9 1012.4 +22.1
09 12.06 ЮВ 2-4
{5}
20 км ясно +28.9 +18.3 53 +34 +48 очень
душно
1012.9 1012.4
12 12.06 ЮВ 3-4
{6}
20 км 1/1 600 м
[Cu med, cong]
+28.1 +18.8 57 +33 +45 очень
душно
1012.1 1011.5
15 12.06 Ю 3-4
{5}
20 км 3/3 600 м
[Cu med, cong]
+30.3 +19.4 52 +36 +40 очень
душно
1011.1 1010.6
18 12.06 В 1-4
{4}
20 км 1/1 600 м
[Cu med, cong]
+28.2 +18.1 54 +33 +33 очень
душно
1010.6 1010.1 +31.5
21 12.06 В 3-6
{6}
20 км 3/3 600 м
[Cu Sc]
+25.8 +18.2 63 +30 +30 душно 1011.3 1010.8
00 13.06 ЮВ 6-7
{7}
20 км 3/0
[Ci fib]
+24.6 +18.0 67 +29 +29 душно 1010.7 1010.2
03 13.06 Ю 5-6
{8}
20 км слаб. ливневой дождь, в посл. час гроза 9/0
[Ci fib]
+22.9 +18.6 77 +29 +29 очень
душно
1010.6 1010.1 +22.6 0.8
06 13.06 З 3-4
{8}
20 км {гроза, ливн. осадки} 8/1 600 м
[Cu Sc Ci sp]
+22.0 +18.6 81 +27 +31 душно 1012.5 1012.0 +21.7 0.8
09 13.06 С 3-7
{8}
20 км 9/4 600 м
[Cu Sc Ci fib]
+23.3 +15.9 63 +28 +34 душно 1013.6 1013.1
12 13.06 З 7-12
{12}
20 км 9/9 300 м
[Cb cap]
+18.5 +16.8 90 +19 +19 1016.5 1016.0
15 13.06 СВ 3-5
{12}
10 км гроза, ливневой дождь 10/10 300 м
[Cb cap]
+17.6 +17.0 96 +18 +18 1015.0 1014.5 12
18 13.06 С 2-4
{8}
10 км {гроза, ливн. осадки} 9/9 300 м
[Cb cap]
+17.2 +16.2 94 +18 +18 1016.4 1015.9 +24.9 13
21 13.06 С 3-5
{5}
10 км 9/9 300 м
[Cb cap]
+16.9 +16.1 95 +17 +17 1015.6 1015.1
00 14.06 С 1-3
{6}
10 км 10/10 300 м
[Cb cap]
+17.1 +16.1 94 +18 +18 1017.1 1016.6
03 14.06 С 2-5
{5}
20 км 10/10 300 м
[Cb cap]
+16.9 +15.2 90 +17 +17 1017.9 1017.4 +16.7 0.7
06 14.06 З 4-6
{6}
10 км в посл. час ливневой дождь 10/10 300 м
[Cb cap]
+17.2 +15.6 90 +17 +17 1019.7 1019.2 +16.7 0.0
09 14.06 З 3-5
{6}
20 км 6/3 600 м
[Cu Sc Ci fib]
+19.2 +13.7 70 +21 +28 комфорт 1020.8 1020.3
12 14.06 З 2-3
{5}
20 км 6/1 600 м
[Cu med, cong Ci fib]
+19.8 +14.6 72 +22 +35 комфорт 1022.0 1021.5
15 14.06 З 2-3
{4}
20 км 3/1 600 м
[Cu med, cong Ci fib]
+20.5 +14.2 67 +24 +29 комфорт 1021.8 1021.3
18 14.06 С 2-3
{4}
20 км 1/0
[Ci fib]
+19.0 +14.3 74 +21 +21 комфорт 1021.0 1020.5 +20.8
21 14.06 СВ 1-1
{4}
20 км 5/5 600 м
[Cu Sc]
+16.3 +15.1 93 +17 +17 1021.8 1021.3
00 15.06 В 2-3
{3}
20 км 8/8 600 м
[Cu Sc]
+17.5 +15.7 89 +18 +18 1020.7 1020.2
03 15.06 СВ 2-3
{3}
9000 м н/о +17.0 +16.4 96 +17 +17 1020.6 1020.1 +15.8
06 15.06 В 3-6
{6}
20 км 4/4 600 м
[Cu Sc]
+20.5 +17.1 81 +24 +27 комфорт 1019.9 1019.4 +15.8
09 15.06 В 3-6
{6}
20 км 8/3 600 м
[Cu Sc Ci fib]
+23.6 +17.4 68 +27 +35 жарко 1018.6 1018.1
12 15.06 В 3-6
{8}
20 км 3/0
[Ci fib]
+25.9 +16.4 56 +29 +41 душно 1016.5 1016.0
15 15.06 В 3-7
{8}
20 км 1/0
[Ci fib]
+26.2 +17.0 57 +30 +36 душно 1015.4 1014.9
18 15.06 В 4-9
{9}
20 км 8/3 600 м
[Sc Ac trans]
+24.6 +15.8 58 +28 +28 душно 1013.2 1012.7 +26.7
21 15.06 В 5-10
{12}
20 км 8/8 600 м
[Cu Sc]
+22.3 +15.2 64 +26 +26 жарко 1011.1 1010.6
00 16.06 В 3-5
{18}
10 км ливневой дождь {гроза} 10/10 300 м
[Cb cap]
+18.2 +17.5 96 +19 +19 1011.9 1011.4
03 16.06 ЮВ 2-6
{12}
20 км {ливн. осадки} 6/6 600 м
[Cu Sc]
+19.1 +16.7 86 +21 +21 комфорт 1010.4 1009.9 +17.4 14
06 16.06 Ю 3-6
{6}
20 км {ливн. осадки} 9/8 600 м
[Sc Ac trans]
+17.9 +16.2 90 +18 +19 1012.9 1012.4 +15.5 14
09 16.06 ЮЗ 4-5
{6}
500 м 9/4 600 м
[Sc Ac As]
+18.1 +16.7 92 +18 +21 1013.6 1013.1
12 16.06 З 4-6
{10}
20 км 10/10 300 м
[Cb cap]
+17.0 +15.0 88 +17 +17 1015.4 1014.9
15 16.06 З 7-9
{9}
20 км 10/10 300 м
[Cb cap]
+16.8 +14.8 88 +16 +16 1016.1 1015.6

 

Местоположение метеостанции Балтийск (Калининградская область, Россия): широта 54.65 долгота 19.88 высота над уровнем моря 4 м.

В архиве по умолчанию представлена погода в Балтийске за последнюю неделю. Архивные данные за месяц целиком и за предыдущие месяцы, начиная с января 2011 года, Вы можете получить, выбрав интересующий диапазон дат из раскрывающегося списка и нажав кнопку "Ввод!".


*Определитесь, кто Вы:
робот инопланетянин человек

Внимание! Время в таблицах - всемирное. Для получения местного времени необходимо прибавить поправку, которая равна 2 ч.

Смотрите также архив погоды в соседних городах и на ближайших метеорологических станциях:

Погода в Мамоново (Калининградская область, Россия) (20 км)
Погода в Рыбном Порту (Калининградская область, Россия) (37 км)
Погода в Пионерском (Калининградская область, Россия) (40 км)
Погода в Калининграде (Калининградская область, Россия) (48 км)
Погода в Эльблонге (Польша) (61 км)
Погода в Хеле (Польша) (68 км)
Погода в Рыбачем (Калининградская область, Россия) (84 км)
Погода на Авиабазе Гдыня-Оксывье (Польша) (88 км)
Погода в Железнодорожном (Калининградская область, Россия) (97 км)
Погода в Ольштыне (Польша) (104 км)

Пояснения к столбцам:

Ветер - указаны скорость ветра в м/с - средняя за 10 мин, порывы в срок и между сроками (в фигурных скобках) и направление, откуда дует ветер: С - северный, СВ - северо-восточный, В - восточный, ЮВ - юго-восточный, Ю - южный, ЮЗ - юго-западный, З - западный, СЗ - северо-западный.
Видимость - горизонтальная дальность видимости в метрах или километрах. При видимости от 1 до 10 км при отсутствии осадков обычно наблюдается дымка, при ухудшении видимости до 1 км и менее - туман. В сухую погоду видимость может ухудшаться дымом, пылью или мглою.
Явления - указаны атмосферные явления, наблюдавшиеся в срок или в последний час перед сроком; фигурными скобками обозначены явления, наблюдавшиеся между сроками (за 1-3 часа до срока); квадратными скобками обозначены град или гололедные отложения с указанием их диаметра в мм.
Облачность - указаны через наклонную черту общая и нижняя облачность в баллах и высота нижней границы облаков в метрах; квадратными скобками обозначены формы облаков: Ci - перистые, Cs - перисто-слоистые, Cc - перисто-кучевые, Ac - высококучевые, As - высокослоистые, Sc - слоисто-кучевые, Ns - слоисто-дождевые, Cu - кучевые, Cb - кучево-дождевые. Подробнее классификацию облаков см. в Атласе облаков (PDF).
T - Температура воздуха - температура, измеренная на высоте 2 м над землей.
Td - Температура точки росы - температура, при понижении до которой содержащийся в воздухе водяной пар достигнет насыщения.
f - Относительная влажность воздуха - влажноcть воздуха, измеренная на высоте 2 м над землей.
Te - Эффективная температура - температура, которую ощущает одетый по сезону человек в тени. Характеристика душности погоды. При расчете учитывается влияние влажности воздуха и скорости ветра на теплоощущения человека.
Tes - Эффективная температура на солнце - температура, которую ощущает человек, с поправкой на солнечный нагрев. Характеристика знойности погоды. Зависит от высоты солнца над горизонтом, облачности и скорости ветра. Ночью, в пасмурную погоду, а также при ветре 12 м/с и более поправка равна нулю.
P - Атмосферное давление - приведенное к уровню моря атмосферное давление.
Po - Атмосферное давление - измеренное на уровне метеостанции атмосферное давление.
Tmin - Минимальная температура - минимум температуры воздуха на высоте 2 м над землей.
Tmax - Максимальная температура - максимум температуры воздуха на высоте 2 м над землей.
R - Количество осадков - Количество выпавших осадков за период времени, мм. При наведении курсора мыши на число - период времени, за который выпало указанное количество осадков.
R24 - Количество осадков - Количество выпавших осадков за 24 часа, мм.
S - Снежный покров - Высота снежного покрова, см. При наведении курсора мыши на число - состояние снежного покрова и степень покрытия местности в баллах.